| time (UTC) | temp F | wind direction | speed MPH | gust MPH | rain 1hr in | rain 24hr in | rain mn in | humidity % | barometer mb |
| 20260505003533 | 66 | 0 | 0.0 | 0.0 | 0.00 | 0.00 | 0.00 | 66 | 1012.5 |
| 20260505003039 | 66 | 0 | 0.0 | 0.0 | 0.00 | 0.00 | 0.00 | 64 | 1012.4 |
| 20260505002533 | 67 | 0 | 0.0 | 2.0 | 0.00 | 0.00 | 0.00 | 64 | 1012.4 |
| 20260505002034 | 67 | 0 | 0.0 | 2.0 | 0.00 | 0.00 | 0.00 | 63 | 1012.4 |
| 20260505001544 | 68 | 0 | 0.0 | 2.0 | 0.00 | 0.00 | 0.00 | 62 | 1012.3 |
| 20260505001034 | 68 | 0 | 0.0 | 0.0 | 0.00 | 0.00 | 0.00 | 61 | 1012.3 |
| 20260505000535 | 69 | 0 | 0.0 | 0.0 | 0.00 | 0.00 | 0.00 | 59 | 1012.4 |
| 20260505000053 | 69 | 0 | 0.0 | 0.0 | 0.00 | 0.00 | 0.00 | 60 | 1012.4 |
| 20260504235533 | 70 | 0 | 0.0 | 0.0 | 0.00 | 0.00 | 0.00 | 58 | 1012.4 |
| 20260504235035 | 70 | 0 | 0.0 | 0.0 | 0.00 | 0.00 | 0.00 | 57 | 1012.4 |
| 20260504234541 | 70 | 0 | 0.0 | 0.0 | 0.00 | 0.00 | 0.00 | 56 | 1012.3 |
| 20260504234033 | 71 | 0 | 0.0 | 1.0 | 0.00 | 0.00 | 0.00 | 56 | 1012.2 |
| 20260504233533 | 71 | 0 | 0.0 | 1.0 | 0.00 | 0.00 | 0.00 | 55 | 1012.2 |
| 20260504233055 | 71 | 0 | 0.0 | 3.0 | 0.00 | 0.00 | 0.00 | 54 | 1012.2 |
| 20260504232534 | 72 | 0 | 0.0 | 3.0 | 0.00 | 0.00 | 0.00 | 53 | 1012.1 |
| 20260504232035 | 72 | 0 | 0.0 | 3.0 | 0.00 | 0.00 | 0.00 | 52 | 1012.2 |
| 20260504231546 | 72 | 0 | 0.0 | 2.0 | 0.00 | 0.00 | 0.00 | 52 | 1012.2 |
| 20260504231032 | 72 | 0 | 0.0 | 5.0 | 0.00 | 0.00 | 0.00 | 51 | 1012.2 |
| 20260504230534 | 72 | 0 | 0.0 | 5.0 | 0.00 | 0.00 | 0.00 | 51 | 1012.1 |
| 20260504230037 | 72 | 360 | 1.0 | 5.0 | 0.00 | 0.00 | 0.00 | 50 | 1012.3 |
| 20260504225532 | 72 | 0 | 2.0 | 6.0 | 0.00 | 0.00 | 0.00 | 49 | 1012.3 |
| 20260504225036 | 73 | 5 | 2.0 | 6.0 | 0.00 | 0.00 | 0.00 | 49 | 1012.3 |
| 20260504224543 | 73 | 27 | 1.0 | 6.0 | 0.00 | 0.00 | 0.00 | 49 | 1012.4 |
| 20260504224031 | 73 | 355 | 2.0 | 6.0 | 0.00 | 0.00 | 0.00 | 49 | 1012.3 |
| 20260504223533 | 73 | 336 | 1.0 | 6.0 | 0.00 | 0.00 | 0.00 | 48 | 1012.4 |
| 20260504223050 | 73 | 55 | 1.0 | 5.0 | 0.00 | 0.00 | 0.00 | 48 | 1012.4 |
| 20260504222534 | 73 | 260 | 1.0 | 5.0 | 0.00 | 0.00 | 0.00 | 48 | 1012.4 |
| 20260504222033 | 73 | 24 | 2.0 | 5.0 | 0.00 | 0.00 | 0.00 | 48 | 1012.4 |
| 20260504221541 | 73 | 64 | 2.0 | 5.0 | 0.00 | 0.00 | 0.00 | 47 | 1012.4 |
| 20260504221036 | 73 | 319 | 1.0 | 5.0 | 0.00 | 0.00 | 0.00 | 47 | 1012.4 |
| 20260504220533 | 73 | 339 | 2.0 | 5.0 | 0.00 | 0.00 | 0.00 | 48 | 1012.4 |
| 20260504220056 | 73 | 0 | 2.0 | 5.0 | 0.00 | 0.00 | 0.00 | 49 | 1012.5 |
| 20260504215532 | 73 | 321 | 2.0 | 5.0 | 0.00 | 0.00 | 0.00 | 51 | 1012.6 |
| 20260504215034 | 73 | 329 | 2.0 | 5.0 | 0.00 | 0.00 | 0.00 | 48 | 1012.6 |
| 20260504214548 | 73 | 0 | 0.0 | 5.0 | 0.00 | 0.00 | 0.00 | 48 | 1012.7 |
| 20260504214034 | 73 | 345 | 0.0 | 5.0 | 0.00 | 0.00 | 0.00 | 50 | 1012.7 |
| 20260504213534 | 73 | 0 | 1.0 | 5.0 | 0.00 | 0.00 | 0.00 | 50 | 1012.8 |
| 20260504213044 | 73 | 0 | 1.0 | 8.0 | 0.00 | 0.00 | 0.00 | 51 | 1012.7 |
| 20260504212532 | 73 | 326 | 2.0 | 8.0 | 0.00 | 0.00 | 0.00 | 48 | 1012.7 |
| 20260504212034 | 73 | 296 | 1.0 | 5.0 | 0.00 | 0.00 | 0.00 | 50 | 1012.6 |
| 20260504211542 | 73 | 153 | 0.0 | 5.0 | 0.00 | 0.00 | 0.00 | 48 | 1012.5 |
| 20260504211034 | 74 | 272 | 0.0 | 5.0 | 0.00 | 0.00 | 0.00 | 47 | 1012.5 |
| 20260504210537 | 74 | 0 | 1.0 | 5.0 | 0.00 | 0.00 | 0.00 | 49 | 1012.4 |
| 20260504210044 | 74 | 304 | 1.0 | 6.0 | 0.00 | 0.00 | 0.00 | 49 | 1012.3 |
| 20260504205531 | 73 | 5 | 1.0 | 9.0 | 0.00 | 0.00 | 0.00 | 48 | 1012.4 |
| 20260504205034 | 73 | 338 | 3.0 | 9.0 | 0.00 | 0.00 | 0.00 | 47 | 1012.3 |
| 20260504204550 | 73 | 0 | 1.0 | 4.0 | 0.00 | 0.00 | 0.00 | 48 | 1012.5 |
| 20260504204032 | 73 | 0 | 0.0 | 6.0 | 0.00 | 0.00 | 0.00 | 48 | 1012.6 |
| 20260504203533 | 73 | 0 | 0.0 | 6.0 | 0.00 | 0.00 | 0.00 | 48 | 1012.7 |
| 20260504203040 | 73 | 156 | 1.0 | 8.0 | 0.00 | 0.00 | 0.00 | 47 | 1012.7 |
| 20260504202532 | 74 | 5 | 1.0 | 8.0 | 0.00 | 0.00 | 0.00 | 46 | 1012.7 |
| 20260504202033 | 74 | 321 | 1.0 | 8.0 | 0.00 | 0.00 | 0.00 | 49 | 1012.7 |
| 20260504201603 | 74 | 284 | 1.0 | 8.0 | 0.00 | 0.00 | 0.00 | 45 | 1012.7 |
| 20260504201037 | 74 | 336 | 1.0 | 10.0 | 0.00 | 0.00 | 0.00 | 45 | 1012.8 |
| 20260504200533 | 74 | 63 | 0.0 | 10.0 | 0.00 | 0.00 | 0.00 | 46 | 1012.7 |
| 20260504200045 | 74 | 94 | 3.0 | 10.0 | 0.00 | 0.00 | 0.00 | 46 | 1012.7 |
| 20260504195533 | 75 | 30 | 1.0 | 9.0 | 0.00 | 0.00 | 0.00 | 46 | 1012.8 |
| 20260504195033 | 75 | 0 | 0.0 | 5.0 | 0.00 | 0.00 | 0.00 | 45 | 1012.7 |
| 20260504194553 | 74 | 93 | 1.0 | 5.0 | 0.00 | 0.00 | 0.00 | 48 | 1012.9 |
| 20260504194033 | 74 | 67 | 0.0 | 6.0 | 0.00 | 0.00 | 0.00 | 45 | 1012.8 |
| 20260504193534 | 74 | 79 | 0.0 | 6.0 | 0.00 | 0.00 | 0.00 | 47 | 1013.0 |
| 20260504193050 | 74 | 331 | 2.0 | 6.0 | 0.00 | 0.00 | 0.00 | 46 | 1013.0 |
| 20260504192533 | 74 | 34 | 1.0 | 7.0 | 0.00 | 0.00 | 0.00 | 50 | 1013.1 |
| 20260504192033 | 74 | 20 | 1.0 | 7.0 | 0.00 | 0.00 | 0.00 | 47 | 1012.9 |
| 20260504191543 | 74 | 127 | 1.0 | 5.0 | 0.00 | 0.00 | 0.00 | 45 | 1013.0 |
| 20260504191035 | 74 | 30 | 0.0 | 4.0 | 0.00 | 0.00 | 0.00 | 47 | 1013.2 |
| 20260504190536 | 73 | 0 | 1.0 | 4.0 | 0.00 | 0.00 | 0.00 | 46 | 1013.1 |
| 20260504190058 | 72 | 0 | 0.0 | 5.0 | 0.00 | 0.00 | 0.00 | 46 | 1013.2 |
| 20260504185536 | 72 | 277 | 0.0 | 5.0 | 0.00 | 0.00 | 0.00 | 46 | 1013.4 |
| 20260504185029 | 73 | 307 | 1.0 | 3.0 | 0.00 | 0.00 | 0.00 | 48 | 1013.5 |
| 20260504184557 | 73 | 0 | 0.0 | 2.0 | 0.00 | 0.00 | 0.00 | 47 | 1013.5 |
| 20260504184037 | 74 | 0 | 0.0 | 5.0 | 0.00 | 0.00 | 0.00 | 48 | 1013.7 |
| 20260504183534 | 74 | 59 | 0.0 | 5.0 | 0.00 | 0.00 | 0.00 | 47 | 1013.6 |
| 20260504183050 | 74 | 339 | 2.0 | 5.0 | 0.00 | 0.00 | 0.00 | 45 | 1013.7 |
| 20260504182533 | 74 | 141 | 1.0 | 4.0 | 0.00 | 0.00 | 0.00 | 46 | 1013.8 |
| 20260504182033 | 74 | 163 | 1.0 | 4.0 | 0.00 | 0.00 | 0.00 | 43 | 1013.8 |
| 20260504181551 | 74 | 129 | 1.0 | 6.0 | 0.00 | 0.00 | 0.00 | 46 | 1013.8 |
| 20260504181036 | 74 | 215 | 2.0 | 6.0 | 0.00 | 0.00 | 0.00 | 42 | 1013.8 |
| 20260504180534 | 74 | 124 | 1.0 | 5.0 | 0.00 | 0.00 | 0.00 | 46 | 1014.1 |
| 20260504180053 | 75 | 360 | 1.0 | 7.0 | 0.00 | 0.00 | 0.00 | 45 | 1014.0 |
| 20260504175534 | 74 | 23 | 1.0 | 7.0 | 0.00 | 0.00 | 0.00 | 47 | 1014.1 |
| 20260504175034 | 74 | 101 | 1.0 | 5.0 | 0.00 | 0.00 | 0.00 | 47 | 1014.2 |
| 20260504174545 | 73 | 355 | 1.0 | 5.0 | 0.00 | 0.00 | 0.00 | 45 | 1014.2 |
| 20260504174034 | 73 | 326 | 1.0 | 9.0 | 0.00 | 0.00 | 0.00 | 46 | 1014.3 |
| 20260504173536 | 72 | 132 | 2.0 | 9.0 | 0.00 | 0.00 | 0.00 | 48 | 1014.4 |
| 20260504173041 | 72 | 309 | 1.0 | 6.0 | 0.00 | 0.00 | 0.00 | 46 | 1014.3 |
| 20260504172533 | 71 | 155 | 1.0 | 6.0 | 0.00 | 0.00 | 0.00 | 47 | 1014.5 |
| 20260504172034 | 71 | 327 | 1.0 | 5.0 | 0.00 | 0.00 | 0.00 | 46 | 1014.5 |
| 20260504171540 | 71 | 21 | 2.0 | 10.0 | 0.00 | 0.00 | 0.00 | 45 | 1014.5 |
| 20260504171037 | 71 | 85 | 4.0 | 10.0 | 0.00 | 0.00 | 0.00 | 46 | 1014.6 |
| 20260504170534 | 71 | 302 | 3.0 | 10.0 | 0.00 | 0.00 | 0.00 | 44 | 1014.6 |
| 20260504151035 | 66 | 290 | 2.0 | 8.0 | 0.00 | 0.00 | 0.00 | 49 | 1016.2 |
| 20260504150536 | 66 | 355 | 1.0 | 8.0 | 0.00 | 0.00 | 0.00 | 50 | 1016.3 |
| 20260504141036 | 63 | 335 | 0.0 | 4.0 | 0.00 | 0.00 | 0.00 | 52 | 1016.4 |
| 20260504140534 | 63 | 355 | 2.0 | 4.0 | 0.00 | 0.00 | 0.00 | 52 | 1016.3 |
| 20260504130533 | 59 | 0 | 0.0 | 2.0 | 0.00 | 0.00 | 0.00 | 60 | 1016.4 |
| 20260504110534 | 47 | 0 | 0.0 | 0.0 | 0.00 | 0.00 | 0.00 | 79 | 1016.7 |
| 20260504100533 | 46 | 0 | 0.0 | 0.0 | 0.00 | 0.00 | 0.00 | 75 | 1016.4 |
| 20260504081549 | 47 | 0 | 0.0 | 0.0 | 0.00 | 0.00 | 0.00 | 71 | 1016.2 |
| 20260504081033 | 47 | 0 | 0.0 | 0.0 | 0.00 | 0.00 | 0.00 | 72 | 1016.2 |
| 20260504080538 | 47 | 0 | 0.0 | 0.0 | 0.00 | 0.00 | 0.00 | 73 | 1016.2 |
| 20260504050534 | 44 | 0 | 0.0 | 0.0 | 0.00 | 0.00 | 0.00 | 79 | 1016.7 |
| 20260504045532 | 44 | 0 | 0.0 | 0.0 | 0.00 | 0.00 | 0.00 | 78 | 1016.4 |
| 20260504045032 | 44 | 0 | 0.0 | 0.0 | 0.00 | 0.00 | 0.00 | 77 | 1016.4 |
| 20260504044546 | 44 | 0 | 0.0 | 0.0 | 0.00 | 0.00 | 0.00 | 78 | 1016.4 |
| 20260504044033 | 44 | 0 | 0.0 | 0.0 | 0.00 | 0.00 | 0.00 | 78 | 1016.4 |
| 20260504043533 | 44 | 0 | 0.0 | 0.0 | 0.00 | 0.00 | 0.00 | 77 | 1016.4 |
| 20260504043043 | 44 | 0 | 0.0 | 0.0 | 0.00 | 0.00 | 0.00 | 77 | 1016.4 |
| 20260504042533 | 44 | 0 | 0.0 | 2.0 | 0.00 | 0.00 | 0.00 | 76 | 1016.4 |
| 20260504042034 | 44 | 0 | 0.0 | 2.0 | 0.00 | 0.00 | 0.00 | 75 | 1016.4 |
| 20260504041542 | 44 | 279 | 0.0 | 1.0 | 0.00 | 0.00 | 0.00 | 75 | 1016.4 |
| 20260504041033 | 44 | 0 | 0.0 | 0.0 | 0.00 | 0.00 | 0.00 | 75 | 1016.5 |
| 20260504040533 | 45 | 0 | 0.0 | 0.0 | 0.00 | 0.00 | 0.00 | 75 | 1016.4 |
| 20260504040045 | 45 | 0 | 0.0 | 0.0 | 0.00 | 0.00 | 0.00 | 70 | 1016.3 |
| 20260504035533 | 45 | 0 | 0.0 | 0.0 | 0.00 | 0.00 | 0.00 | 69 | 1016.4 |
| 20260504035032 | 45 | 0 | 0.0 | 0.0 | 0.00 | 0.00 | 0.00 | 68 | 1016.2 |
| 20260504034544 | 45 | 0 | 0.0 | 0.0 | 0.00 | 0.00 | 0.00 | 68 | 1016.4 |
| 20260504034034 | 45 | 0 | 0.0 | 0.0 | 0.00 | 0.00 | 0.00 | 70 | 1016.4 |
| 20260504033534 | 45 | 0 | 0.0 | 0.0 | 0.00 | 0.00 | 0.00 | 68 | 1016.4 |
| 20260504033051 | 46 | 0 | 0.0 | 0.0 | 0.00 | 0.00 | 0.00 | 67 | 1016.4 |
| 20260504032533 | 46 | 0 | 0.0 | 0.0 | 0.00 | 0.00 | 0.00 | 68 | 1016.3 |
| 20260504032034 | 46 | 0 | 0.0 | 0.0 | 0.00 | 0.00 | 0.00 | 66 | 1016.3 |
| 20260504031543 | 46 | 0 | 0.0 | 0.0 | 0.00 | 0.00 | 0.00 | 67 | 1016.4 |
| 20260504031034 | 46 | 0 | 0.0 | 0.0 | 0.00 | 0.00 | 0.00 | 66 | 1016.4 |
| 20260504030532 | 47 | 0 | 0.0 | 0.0 | 0.00 | 0.00 | 0.00 | 66 | 1016.5 |
| 20260504030046 | 47 | 0 | 0.0 | 0.0 | 0.00 | 0.00 | 0.00 | 65 | 1016.4 |
| 20260504025533 | 47 | 0 | 0.0 | 0.0 | 0.00 | 0.00 | 0.00 | 64 | 1016.4 |
| 20260504025034 | 47 | 0 | 0.0 | 0.0 | 0.00 | 0.00 | 0.00 | 63 | 1016.4 |
| 20260504024550 | 47 | 0 | 0.0 | 0.0 | 0.00 | 0.00 | 0.00 | 63 | 1016.5 |
| 20260504024033 | 47 | 0 | 0.0 | 0.0 | 0.00 | 0.00 | 0.00 | 63 | 1016.5 |
| 20260504023533 | 47 | 0 | 0.0 | 0.0 | 0.00 | 0.00 | 0.00 | 62 | 1016.3 |
| 20260504023047 | 47 | 0 | 0.0 | 0.0 | 0.00 | 0.00 | 0.00 | 61 | 1016.4 |
| 20260504022534 | 47 | 0 | 0.0 | 0.0 | 0.00 | 0.00 | 0.00 | 61 | 1016.4 |
| 20260504022033 | 47 | 0 | 0.0 | 0.0 | 0.00 | 0.00 | 0.00 | 61 | 1016.5 |
| 20260504021550 | 47 | 0 | 0.0 | 0.0 | 0.00 | 0.00 | 0.00 | 60 | 1016.4 |
| 20260504021032 | 47 | 0 | 0.0 | 0.0 | 0.00 | 0.00 | 0.00 | 62 | 1016.4 |
| 20260504020532 | 48 | 0 | 0.0 | 0.0 | 0.00 | 0.00 | 0.00 | 63 | 1016.2 |
| 20260504020047 | 48 | 0 | 0.0 | 0.0 | 0.00 | 0.00 | 0.00 | 60 | 1016.2 |
| 20260504015533 | 48 | 0 | 0.0 | 0.0 | 0.00 | 0.00 | 0.00 | 59 | 1016.1 |
| 20260504015032 | 48 | 0 | 0.0 | 0.0 | 0.00 | 0.00 | 0.00 | 58 | 1016.0 |
| 20260504014549 | 48 | 0 | 0.0 | 0.0 | 0.00 | 0.00 | 0.00 | 59 | 1016.0 |
| 20260504014034 | 49 | 0 | 0.0 | 0.0 | 0.00 | 0.00 | 0.00 | 62 | 1016.0 |
| 20260504013534 | 49 | 0 | 0.0 | 0.0 | 0.00 | 0.00 | 0.00 | 59 | 1015.8 |
| 20260504013058 | 49 | 0 | 0.0 | 0.0 | 0.00 | 0.00 | 0.00 | 59 | 1015.7 |
| 20260504012533 | 49 | 0 | 0.0 | 0.0 | 0.00 | 0.00 | 0.00 | 60 | 1015.6 |
| 20260504012032 | 49 | 0 | 0.0 | 0.0 | 0.00 | 0.00 | 0.00 | 59 | 1015.6 |
| 20260504011545 | 49 | 0 | 0.0 | 0.0 | 0.00 | 0.00 | 0.00 | 60 | 1015.6 |
| 20260504011032 | 50 | 0 | 0.0 | 0.0 | 0.00 | 0.00 | 0.00 | 61 | 1015.7 |
| 20260504010532 | 50 | 0 | 0.0 | 0.0 | 0.00 | 0.00 | 0.00 | 59 | 1015.6 |
| 20260504010043 | 50 | 0 | 0.0 | 0.0 | 0.00 | 0.00 | 0.00 | 60 | 1015.5 |
| 20260504005533 | 50 | 0 | 0.0 | 0.0 | 0.00 | 0.00 | 0.00 | 61 | 1015.4 |
| 20260504005034 | 51 | 0 | 0.0 | 0.0 | 0.00 | 0.00 | 0.00 | 60 | 1015.5 |
| 20260504004558 | 51 | 0 | 0.0 | 0.0 | 0.00 | 0.00 | 0.00 | 60 | 1015.3 |
| 20260504004033 | 52 | 0 | 0.0 | 0.0 | 0.00 | 0.00 | 0.00 | 59 | 1015.2 |